www.pogodaiklimat.ru
ПОГОДА в Горна-Оряховице

Архив погоды в Горна-Оряховице (Болгария)

Время
(UTC), дата
19 18.07
20 18.07
21 18.07
22 18.07
23 18.07
00 19.07
01 19.07
02 19.07
03 19.07
04 19.07
05 19.07
06 19.07
07 19.07
08 19.07
09 19.07
10 19.07
11 19.07
12 19.07
13 19.07
14 19.07
15 19.07
16 19.07
17 19.07
18 19.07
19 19.07
20 19.07
21 19.07
22 19.07
23 19.07
00 20.07
01 20.07
02 20.07
03 20.07
04 20.07
05 20.07
06 20.07
07 20.07
08 20.07
09 20.07
10 20.07
11 20.07
12 20.07
13 20.07
14 20.07
15 20.07
16 20.07
17 20.07
18 20.07
19 20.07
20 20.07
21 20.07
22 20.07
23 20.07
00 21.07
01 21.07
02 21.07
03 21.07
04 21.07
05 21.07
06 21.07
07 21.07
08 21.07
09 21.07
10 21.07
11 21.07
12 21.07
13 21.07
14 21.07
15 21.07
16 21.07
17 21.07
18 21.07
19 21.07
20 21.07
21 21.07
22 21.07
23 21.07
00 22.07
01 22.07
02 22.07
03 22.07
04 22.07
05 22.07
06 22.07
07 22.07
08 22.07
09 22.07
10 22.07
11 22.07
12 22.07
13 22.07
14 22.07
15 22.07
16 22.07
17 22.07
18 22.07
19 22.07
20 22.07
21 22.07
22 22.07
23 22.07
00 23.07
01 23.07
02 23.07
03 23.07
04 23.07
05 23.07
06 23.07
07 23.07
08 23.07
09 23.07
10 23.07
11 23.07
12 23.07
13 23.07
14 23.07
15 23.07
16 23.07
17 23.07
18 23.07
19 23.07
20 23.07
21 23.07
22 23.07
23 23.07
00 24.07
01 24.07
02 24.07
03 24.07
04 24.07
05 24.07
06 24.07
07 24.07
08 24.07
09 24.07
10 24.07
11 24.07
12 24.07
13 24.07
14 24.07
15 24.07
16 24.07
17 24.07
18 24.07
19 24.07
20 24.07
21 24.07
22 24.07
23 24.07
00 25.07
01 25.07
02 25.07
03 25.07
04 25.07
05 25.07
06 25.07
07 25.07
08 25.07
09 25.07
10 25.07
11 25.07
12 25.07
13 25.07
14 25.07
15 25.07
16 25.07
17 25.07
18 25.07
Ветер
(напр.,м/с)
Видим. Явления Облачность Т
(С)
Тd
(С)
f
(%)
Тe
(С)
Тes
(С)
Комфортность P
(гПа)
Po
(гПа)
Тmin
(С)
Tmax
(С)
R
(мм)
R24
(мм)
S
(см)
З 3 10 км ясно +29.0 +19.0 55 +34 +34 очень душно 1016.0 1006.1
З 6 10 км гроза, ливневой дождь 2/2 960 м
[Cb]
+23.0 +20.0 83 +30 +30 очень душно 1017.0 1006.9
нст 2 10 км слаб. ливневой дождь ясно +23.0 +20.0 83 +30 +30 очень душно 1017.0 1006.9
С 2 н/о ясно +23.0 +20.0 83 +30 +30 очень душно 1017.0 1006.9
В 3 н/о 8/0 2580 м
[Ac]
+22.0 +20.0 88 +28 +28 душно 1017.0 1006.9
В 2 10 км ясно +22.0 +20.0 88 +28 +28 душно 1016.0 1005.9
СВ 1 10 км ясно +21.0 +20.0 94 +27 +27 душно 1016.0 1005.9
З 3 10 км 8/0 2520 м
[Ac]
+21.0 +20.0 94 +26 +26 душно 1016.0 1005.9
нст 1 10 км 8/0 3300 м
[Ac]
+21.0 +20.0 94 +27 +27 душно 1017.0 1006.9
нст 1 10 км 8/0 3300 м
[Ac]
+22.0 +21.0 94 +28 +29 душно 1017.0 1006.9
СЗ 2 н/о 10/0 3300 м
[Ac]
+23.0 +20.0 83 +30 +31 очень душно 1017.0 1006.9
З 2 10 км 2/0 4800 м
[Ac]
+24.0 +21.0 83 +30 +36 очень душно 1017.0 1007.0
нст 1 10 км 5/0 3000 м
[Ac]
+27.0 +21.0 70 +34 +42 очень душно 1017.0 1007.1
В 3 н/о 8/5 900 м
[Ac]
+28.0 +20.0 62 +34 +38 очень душно 1017.0 1007.1
В 4 10 км 5/5 900 м
[Ac]
+26.0 +21.0 74 +33 +39 очень душно 1017.0 1007.0
нст 1 10 км 8/5 900 м
[Ac]
+29.0 +19.0 55 +34 +41 очень душно 1016.0 1006.1
нст 2 10 км 8/0 3900 м
[Ac]
+31.0 +19.0 49 +36 +45 очень душно 1016.0 1006.2
нст 1 10 км 8/0 4800 м
[Ac]
+31.0 +18.0 46 +35 +44 очень душно 1015.0 1005.2
ЮВ 3 н/о 8/0 4800 м
[Ac]
+33.0 +19.0 44 +38 +43 очень душно 1014.0 1004.3
В 2 н/о 8/0 5700 м
[Ac]
+33.0 +19.0 44 +38 +42 очень душно 1013.0 1003.3
ЮВ 2 н/о 2/0 2040 м
[Ac]
+34.0 +19.0 41 +39 +43 очень душно 1012.0 1002.3
СЗ 5 10 км ясно +32.0 +20.0 49 +38 +38 очень душно 1012.0 1002.3
В 9-15 10 км гроза без осадков ясно +27.0 +18.0 58 +32 +32 очень душно 1013.0 1003.1
нст 2 10 км слаб. ливневой дождь 2/2 990 м
[Cb]
+28.0 +17.0 51 +32 +32 душно 1012.0 1002.1
нст 1 10 км ясно +24.0 +19.0 74 +29 +29 душно 1013.0 1003.0
В 3 10 км ясно +22.0 +20.0 88 +28 +28 душно 1013.0 1002.9
В 1 10 км ясно +21.0 +20.0 94 +27 +27 душно 1013.0 1002.9
В 2 10 км ясно +20.0 +20.0 100 +24 +24 комфорт 1013.0 1002.9
В 3 10 км ясно +21.0 +20.0 94 +26 +26 душно 1012.0 1001.9
В 3 10 км ясно +20.0 +20.0 100 +24 +24 комфорт 1012.0 1001.9
В 2 н/о ясно +20.0 +19.0 94 +24 +24 комфорт 1012.0 1001.9
ЮВ 1 10 км 2/0 2310 м
[Ac]
+19.0 +19.0 100 +22 +22 комфорт 1012.0 1001.8
В 2 10 км 10/0 3900 м
[Ac]
+20.0 +20.0 100 +24 +24 комфорт 1012.0 1001.9
В 2 10 км 10/0 3900 м
[Ac]
+20.0 +20.0 100 +24 +24 комфорт 1012.0 1001.9
В 2 10 км 8/0 3600 м
[Ac]
+21.0 +20.0 94 +27 +28 душно 1012.0 1001.9
В 2 н/о 8/0 3900 м
[Ac]
+23.0 +21.0 89 +31 +33 очень душно 1012.0 1002.0
В 2 н/о ясно +27.0 +20.0 66 +33 +33 очень душно 1011.0 1001.1
В 2 н/о ясно +30.0 +21.0 59 +38 +38 очень душно 1011.0 1001.2
В 3 н/о ясно +32.0 +20.0 49 +38 +38 очень душно 1011.0 1001.3
В 3 н/о 2/0 7200 м
[Ci]
+33.0 +18.0 41 +37 +52 опасность солнечного удара 1010.0 1000.3
В 3 н/о 2/0 6600 м
[Ci]
+35.0 +18.0 37 +39 +54 опасность солнечного удара 1009.0 999.4
нст 2 10 км ясно +36.0 +17.0 33 +39 +39 очень душно 1008.0 998.4
Ю 3 н/о ясно +36.0 +16.0 31 +38 +38 очень душно 1008.0 998.4
С 2 н/о 2/0 2670 м
[Ac]
+36.0 +16.0 31 +38 +46 очень душно 1007.0 997.4
В 3 н/о 2/0 7500 м
[Ci]
+36.0 +16.0 31 +38 +42 очень душно 1007.0 997.4
В 2 н/о ясно +36.0 +17.0 33 +39 +39 очень душно 1006.0 996.4
ЮВ 3 10 км ясно +34.0 +17.0 36 +37 +37 очень душно 1006.0 996.4
ЮВ 3 н/о ясно +31.0 +18.0 46 +35 +35 очень душно 1007.0 997.3
Ю 3 н/о ясно +30.0 +18.0 49 +35 +35 очень душно 1007.0 997.2
В 3 10 км ясно +27.0 +18.0 58 +32 +32 очень душно 1007.0 997.1
ЮВ 3 10 км ясно +27.0 +18.0 58 +32 +32 очень душно 1007.0 997.1
ЮВ 4 10 км ясно +27.0 +17.0 54 +31 +31 душно 1008.0 998.1
ЮВ 4 10 км 10/0 4200 м
[Ac]
+26.0 +17.0 58 +30 +30 душно 1008.0 998.1
нст 2 10 км 10/0 3000 м
[Ac]
+26.0 +17.0 58 +30 +30 душно 1008.0 998.1
З 7 10 км 10/0 3300 м
[Ac]
+25.0 +19.0 69 +30 +30 душно 1009.0 999.1
З 5 10 км 10/0 3000 м
[Ac]
+24.0 +19.0 74 +29 +29 душно 1009.0 999.0
З 4 10 км 8/0 2490 м
[Ac]
+24.0 +19.0 74 +29 +29 душно 1010.0 1000.0
штиль 0 10 км 8/0 2580 м
[Ac]
+24.0 +20.0 78 +29 +30 душно 1009.0 999.0
В 2 н/о гроза без осадков 5/5 900 м
[Cb]
+24.0 +20.0 78 +29 +31 душно 1009.0 999.0
В 3 10 км гроза, ливневой дождь 5/5 570 м
[Cb]
+23.0 +21.0 89 +31 +33 очень душно 1009.0 999.0
ЮВ 2 н/о 5/5 900 м +24.0 +21.0 83 +30 +35 очень душно 1009.0 999.0
В 4 10 км 5/5 900 м +24.0 +21.0 83 +30 +35 очень душно 1009.0 999.0
ЮВ 4 н/о 5/5 900 м
[Ac]
+28.0 +20.0 62 +34 +40 очень душно 1009.0 999.2
В 4 10 км ясно +29.0 +19.0 55 +34 +34 очень душно 1008.0 998.2
В 5 10 км ясно +30.0 +18.0 49 +35 +35 очень душно 1008.0 998.2
В 4 н/о 2/0 2820 м
[Ac]
+33.0 +19.0 44 +38 +48 очень душно 1007.0 997.3
нст 1 10 км 2/0 4800 м
[Ac]
+35.0 +18.0 37 +39 +52 опасность солнечного удара 1006.0 996.4
ЮЗ 6 н/о 8/0 1980 м
[Ac]
+33.0 +18.0 41 +37 +39 очень душно 1006.0 996.3
З 3-20 10 км слаб. ливневой дождь 5/5 900 м
[Cb]
+25.0 +20.0 74 +31 +31 очень душно 1008.0 998.1
С 5 н/о 10/0 3600 м
[Ac]
+25.0 +21.0 78 +31 +32 очень душно 1008.0 998.1
штиль 0 10 км 8/0 3600 м
[Ac]
+25.0 +21.0 78 +31 +32 очень душно 1008.0 998.1
нст 2 10 км ясно +23.0 +21.0 89 +31 +31 очень душно 1008.0 998.0
В 2 н/о ясно +22.0 +20.0 88 +28 +28 душно 1008.0 998.0
В 2 10 км 5/0 4200 м
[Ac]
+21.0 +20.0 94 +27 +27 душно 1008.0 997.9
В 2 10 км 5/0 3900 м
[Ac]
+21.0 +20.0 94 +27 +27 душно 1009.0 998.9
штиль 0 10 км 8/0 3300 м
[Ac]
+20.0 +20.0 100 +23 +23 комфорт 1009.0 998.9
В 1 10 км 2/0 3300 м
[Ac]
+20.0 +20.0 100 +25 +25 комфорт 1009.0 998.9
В 2 10 км 8/0 3600 м
[Ac]
+20.0 +20.0 100 +24 +24 комфорт 1009.0 998.9
штиль 0 10 км 8/0 3000 м
[Ac]
+20.0 +20.0 100 +23 +23 комфорт 1009.0 998.9
штиль 0 н/о ясно +19.0 +19.0 100 +21 +21 комфорт 1009.0 998.9
нст 1 н/о 8/0 4800 м
[Ac]
+19.0 +19.0 100 +22 +22 комфорт 1009.0 998.9
В 2 10 км 8/0 5100 м
[Ac]
+20.0 +20.0 100 +24 +24 комфорт 1009.0 998.9
нст 1 10 км 2/0 4800 м
[Ac]
+22.0 +20.0 88 +28 +31 душно 1010.0 1000.0
В 2 10 км ясно +25.0 +21.0 78 +31 +31 очень душно 1010.0 1000.1
нст 1 10 км 10/10 1470 м +27.0 +22.0 74 +35 +35 очень душно 1010.0 1000.1
З 4 н/о 2/2 1590 м +29.0 +21.0 62 +36 +44 очень душно 1010.0 1000.2
СЗ 3 10 км 2/2 1380 м +31.0 +19.0 49 +36 +48 очень душно 1010.0 1000.3
З 4 н/о 5/2 1470 м
[Ac]
+32.0 +20.0 49 +38 +46 очень душно 1009.0 999.3
З 4 н/о 2/2 1710 м +33.0 +19.0 44 +38 +48 очень душно 1009.0 999.3
З 3 н/о 8/2 1770 м
[Ac]
+32.0 +19.0 46 +37 +42 очень душно 1009.0 999.3
ЮЗ 4 н/о 5/0 7200 м
[Ci]
+33.0 +20.0 46 +39 +47 очень душно 1009.0 999.3
ЮЗ 6 10 км 8/0 6600 м
[Ci]
+30.0 +21.0 59 +38 +40 очень душно 1008.0 998.2
Ю 4 10 км 5/0 7500 м
[Ci]
+30.0 +19.0 52 +35 +38 очень душно 1008.0 998.2
Ю 4 н/о ясно +31.0 +19.0 49 +36 +36 очень душно 1008.0 998.3
Ю 2 н/о 2/0 7200 м
[Ci]
+30.0 +20.0 55 +36 +37 очень душно 1008.0 998.2
В 3 10 км 5/0 2490 м
[Ac]
+27.0 +20.0 66 +33 +33 очень душно 1009.0 999.1
В 4 10 км 2/0 2550 м
[Ac]
+26.0 +20.0 70 +32 +32 очень душно 1009.0 999.1
В 2 н/о ясно +24.0 +19.0 74 +29 +29 душно 1010.0 1000.0
В 3 10 км 2/0 2430 м
[Ac]
+23.0 +19.0 78 +29 +29 очень душно 1010.0 1000.0
ЮВ 1 10 км 2/0 2670 м
[Ac]
+22.0 +19.0 83 +27 +27 душно 1011.0 1000.9
штиль 0 10 км ясно +22.0 +19.0 83 +27 +27 душно 1011.0 1000.9
нст 1 10 км 2/0 2430 м
[Ac]
+20.0 +19.0 94 +24 +24 комфорт 1011.0 1000.9
штиль 0 10 км ясно +20.0 +19.0 94 +23 +23 комфорт 1011.0 1000.9
штиль 0 10 км ясно +19.0 +19.0 100 +21 +21 комфорт 1012.0 1001.8
З 2 10 км ясно +19.0 +19.0 100 +21 +21 комфорт 1012.0 1001.8
З 2 10 км 8/0 2460 м
[Ac]
+20.0 +20.0 100 +24 +24 комфорт 1013.0 1002.9
З 2 н/о ясно +22.0 +20.0 88 +28 +28 душно 1013.0 1002.9
нст 1 10 км ясно +25.0 +19.0 69 +30 +30 душно 1013.0 1003.0
нст 1 10 км ясно +27.0 +20.0 66 +33 +33 очень душно 1013.0 1003.1
нст 2 10 км 2/0 2130 м
[Ac]
+29.0 +19.0 55 +34 +47 очень душно 1013.0 1003.2
нст 2 10 км 2/2 1380 м +29.0 +19.0 55 +34 +48 очень душно 1013.0 1003.2
З 4 н/о 2/2 1620 м +31.0 +18.0 46 +35 +46 очень душно 1013.0 1003.2
СЗ 5 н/о 5/5 1860 м +32.0 +17.0 41 +36 +40 очень душно 1012.0 1002.3
СВ 5 10 км 2/0 2040 м
[Ac]
+32.0 +16.0 38 +35 +42 очень душно 1012.0 1002.3
С 5 н/о 2/0 2130 м
[Ac]
+32.0 +16.0 38 +35 +40 очень душно 1011.0 1001.3
С 5 н/о 2/0 2310 м
[Ac]
+33.0 +16.0 36 +36 +39 очень душно 1011.0 1001.3
С 4 н/о 2/0 2310 м
[Ac]
+33.0 +15.0 34 +35 +38 душно 1011.0 1001.3
С 4 н/о ясно +32.0 +15.0 36 +34 +34 душно 1011.0 1001.3
С 3 10 км ясно +31.0 +15.0 38 +33 +33 душно 1011.0 1001.2
штиль 0 10 км ясно +26.0 +17.0 58 +30 +30 душно 1011.0 1001.1
ЮЗ 1 10 км ясно +23.0 +17.0 69 +28 +28 душно 1011.0 1001.0
штиль 0 10 км ясно +21.0 +17.0 78 +25 +25 комфорт 1012.0 1001.9
штиль 0 10 км ясно +20.0 +17.0 83 +23 +23 комфорт 1012.0 1001.9
ЮЗ 2 н/о ясно +19.0 +18.0 94 +21 +21 комфорт 1012.0 1001.8
В 2 10 км ясно +19.0 +17.0 88 +21 +21 комфорт 1012.0 1001.8
В 1 10 км ясно +18.0 +17.0 94 +19 +19 1011.0 1000.8
штиль 0 10 км ясно +17.0 +16.0 94 +17 +17 1011.0 1000.8
штиль 0 10 км ясно +17.0 +16.0 94 +17 +17 1011.0 1000.8
нст 1 10 км 5/0 2430 м
[Ac]
+17.0 +16.0 94 +18 +18 1011.0 1000.8
СВ 4 10 км 2/0 3600 м
[Ac]
+19.0 +17.0 88 +20 +21 1011.0 1000.8
нст 2 10 км 10/0 2970 м
[Ac]
+20.0 +17.0 83 +23 +24 комфорт 1012.0 1001.9
нст 1 10 км 10/2 1950 м
[Ac]
+23.0 +17.0 69 +28 +30 душно 1012.0 1002.0
нст 1 10 км 10/2 900 м
[Ac]
+21.0 +19.0 88 +27 +30 душно 1012.0 1001.9
В 3 10 км 10/0 2700 м
[Ac]
+23.0 +18.0 73 +28 +32 душно 1012.0 1002.0
нст 1 10 км 10/0 2100 м
[Ac]
+25.0 +19.0 69 +30 +36 душно 1011.0 1001.0
С 2 н/о слаб. ливневой дождь 10/0 2970 м
[Ac]
+25.0 +19.0 69 +30 +36 душно 1011.0 1001.0
С 2 н/о 8/0 4200 м
[Ac]
+27.0 +18.0 58 +32 +40 очень душно 1010.0 1000.1
СЗ 3 10 км 5/0 4500 м
[Ac]
+30.0 +16.0 43 +33 +42 душно 1009.0 999.2
Ю 3 н/о ясно +31.0 +17.0 43 +35 +35 очень душно 1008.0 998.3
В 2 10 км 2/0 7200 м
[Ci]
+30.0 +17.0 46 +34 +42 очень душно 1007.0 997.2
В 2 н/о ясно +31.0 +16.0 40 +34 +34 душно 1007.0 997.3
нст 1 10 км 8/0 4200 м
[Ac]
+32.0 +14.0 34 +34 +34 душно 1007.0 997.3
С 3 10 км 8/0 4200 м
[Ac]
+30.0 +15.0 40 +32 +32 жарко 1007.0 997.2
СЗ 3 10 км 5/0 2700 м
[Ac]
+28.0 +14.0 42 +30 +30 жарко 1008.0 998.2
СЗ 5 н/о 10/0 2460 м
[Ac]
+26.0 +18.0 61 +30 +30 душно 1009.0 999.1
ЮЗ 5 10 км слаб. дождь 10/0 2760 м
[Ac As]
+23.0 +19.0 78 +29 +29 очень душно 1010.0 1000.0
З 4 10 км слаб. ливневой дождь 10/0 2190 м
[Ac]
+22.0 +19.0 83 +27 +27 душно 1010.0 1000.0
СЗ 2 н/о слаб. дождь 10/0 3900 м
[Ac As]
+21.0 +20.0 94 +27 +27 душно 1009.0 998.9
ЮЗ 2 10 км слаб. дождь 10/0 3300 м
[Ac As]
+21.0 +20.0 94 +27 +27 душно 1010.0 999.9
З 2 10 км слаб. дождь 10/8 930 м
[Ac Ns]
+21.0 +20.0 94 +27 +27 душно 1009.0 998.9
штиль 0 10 км слаб. ливневой дождь 10/2 1560 м
[Ac Cb]
+20.0 +20.0 100 +23 +23 комфорт 1009.0 998.9
ЮВ 2 10 км слаб. дождь 10/2 1410 м
[Ac Ns]
+20.0 +20.0 100 +24 +24 комфорт 1009.0 998.9
В 2 10 км слаб. ливневой дождь 10/0 3300 м
[Ac]
+20.0 +20.0 100 +24 +24 комфорт 1009.0 998.9
В 3 н/о слаб. дождь 10/0 2040 м
[Ac As]
+20.0 +20.0 100 +24 +24 комфорт 1009.0 998.9
В 2 10 км слаб. дождь 10/8 1650 м
[Ac Ns]
+21.0 +20.0 94 +27 +27 душно 1009.0 998.9
Ю 2 10 км 8/2 1560 м
[Ac]
+22.0 +20.0 88 +28 +30 душно 1008.0 998.0
Ю 2 н/о 8/2 1410 м
[Ci]
+23.0 +20.0 83 +30 +37 очень душно 1008.0 998.0
З 4 н/о 8/8 780 м
[Ac]
+25.0 +20.0 74 +31 +33 очень душно 1008.0 998.1
СЗ 3 н/о 8/5 780 м
[Ac]
+26.0 +20.0 70 +32 +36 очень душно 1008.0 998.1
З 6 10 км 8/2 1140 м
[Ac]
+27.0 +19.0 62 +32 +35 очень душно 1007.0 997.2
нст 3 10 км 2/2 1740 м +29.0 +18.0 51 +33 +46 очень душно 1007.0 997.2
З 4 н/о слаб. дождь 5/5 690 м
[Ns]
+24.0 +19.0 74 +29 +34 душно 1006.0 996.1
ЮВ 4 н/о гроза без осадков 5/5 1740 м
[Cb]
+22.0 +20.0 88 +28 +32 душно 1006.0 996.0
ЮВ 4 н/о 8/5 1770 м
[Ac Ci]
+23.0 +20.0 83 +30 +32 очень душно 1006.0 996.0
ЮЗ 3 н/о 10/2 1800 м
[Ac]
+23.0 +20.0 83 +30 +31 очень душно 1006.0 996.0
ЮВ 3 н/о слаб. ливневой дождь 8/2 1470 м
[Ac Ci Cb]
+22.0 +19.0 83 +27 +28 душно 1006.0 996.0
Ю 2 н/о 10/2 900 м
[Ac]
+23.0 +20.0 83 +30 +30 очень душно 1006.0 996.0
СВ 5 10 км 2/2 630 м +21.0 +18.0 83 +25 +25 комфорт 1008.0 997.9
Местоположение метеостанции Горна-Оряховица (Болгария): широта 43.15 долгота 25.71 высота над уровнем моря 87 м.
В архиве по умолчанию представлена погода в Горна-Оряховице за последнюю неделю. Архивные данные за месяц целиком и за предыдущие месяцы, начиная с января 2011 года, Вы можете получить, выбрав интересующий диапазон дат из раскрывающегося списка и нажав кнопку "Найти!".
*Определитесь, кто Вы:
Внимание! Время в таблицах - всемирное. Для получения местного времени необходимо прибавить поправку, которая равна 2 ч.
Некоторые строки с данными для отдельных станций могут быть выделены курсивом. Это означает, что фактические данные отсутствуют по различным причинам, а приведенные значения являются расчетными модельными данными для данного пункта наблюдений.
Смотрите также архив погоды в соседних городах и на ближайших метеорологических станциях:
Партнеры нашего сайта:      
Пояснения к столбцам:
  • Ветер - указаны скорость ветра в м/с - средняя за 10 мин, порывы в срок и между сроками (в фигурных скобках) и направление, откуда дует ветер: С - северный,
  • СВ - северо-восточный, В - восточный, ЮВ - юго-восточный, Ю - южный, ЮЗ - юго-западный, З - западный, СЗ - северо-западный.
  • Видимость - горизонтальная дальность видимости в метрах или километрах. При видимости от 1 до 10 км при отсутствии осадков обычно наблюдается дымка, при ухудшении видимости до 1 км и менее - туман. В сухую погоду видимость может ухудшаться дымом, пылью или мглою.
  • Явления - указаны атмосферные явления, наблюдавшиеся в срок или в последний час перед сроком; фигурными скобками обозначены явления, наблюдавшиеся между сроками (за 1-3 часа до срока); квадратными скобками обозначены град или гололедные отложения с указанием их диаметра в мм.
  • Облачность - указаны через наклонную черту общая и нижняя облачность в баллах и высота нижней границы облаков в метрах; квадратными скобками обозначены формы облаков: Ci - перистые, Cs - перисто-слоистые, Cc - перисто-кучевые, Ac - высококучевые, As - высокослоистые, Sc - слоисто-кучевые, Ns - слоисто-дождевые, Cu - кучевые, Cb - кучево-дождевые. Подробнее классификацию облаков см. в Атласе облаков (PDF).
  • T - Температура воздуха - температура, измеренная на высоте 2 м над землей.
  • Td - Температура точки росы - температура, при понижении до которой содержащийся в воздухе водяной пар достигнет насыщения.
  • f - Относительная влажность воздуха - влажноcть воздуха, измеренная на высоте 2 м над землей.
  • Te - Эффективная температура - температура, которую ощущает одетый по сезону человек в тени. Характеристика душности погоды. При расчете учитывается влияние влажности воздуха и скорости ветра на теплоощущения человека.
  • Tes - Эффективная температура на солнце - температура, которую ощущает человек, с поправкой на солнечный нагрев. Характеристика знойности погоды. Зависит от высоты солнца над горизонтом, облачности и скорости ветра. Ночью, в пасмурную погоду, а также при ветре 12 м/с и более поправка равна нулю.
  • P - Атмосферное давление - приведенное к уровню моря атмосферное давление.
  • Po - Атмосферное давление - измеренное на уровне метеостанции атмосферное давление.
  • Tmin - Минимальная температура - минимум температуры воздуха на высоте 2 м над землей.
  • Tmax - Максимальная температура - максимум температуры воздуха на высоте 2 м над землей.
  • R - Количество осадков - Количество выпавших осадков за период времени, мм. При наведении курсора мыши на число - период времени, за который выпало указанное количество осадков.
  • R24 - Количество осадков - Количество выпавших осадков за 24 часа, мм.
  • S - Снежный покров - Высота снежного покрова, см. При наведении курсора мыши на число - состояние снежного покрова и степень покрытия местности в баллах.